Regional Weather Roundup
Issued by NWS Cleveland, OH

Home | Current Version | Previous Version | Text Only | Print | Product List | Glossary Off
Versions: 1 2 3 4 5 6 7 8 9 10 11 12 13 14 15 16 17 18 19 20 21 22 23 24 25 26 27 28 29 30 31 32 33 34 35 36 37 38 39 40 41 42 43 44 45 46 47 48 49 50

000
ASUS41 KCLE 170312
RWRCLE
OHIO REGIONAL WEATHER ROUNDUP
NATIONAL WEATHER SERVICE WILMINGTON, OH
1000 PM EST SAT DEC 16 2017

NOTE: "FAIR" INDICATES FEW OR NO CLOUDS BELOW 12,000 FEET WITH NO
SIGNIFICANT WEATHER AND/OR OBSTRUCTIONS TO VISIBILITY.

OHZ001>008-015>018-024>027-034-035-043-044-170400-
   NORTHWEST OHIO

CITY           SKY/WX    TMP DP  RH WIND       PRES   REMARKS
DEFIANCE       FAIR      29  25  85 E7        30.12R WCI  22
FINDLAY        FAIR      33  26  75 NE6       30.09S WCI  28
TOLEDO EXPRESS FAIR      28  27  96 E6        30.12R WCI  22
TOLEDO EXEC    MOCLDY    29  26  89 NE8       30.14R WCI  21
LIMA           FAIR      36  28  73 S8        30.10R
$$

OHZ009>014-019>023-028>033-038-089-170400-
   NORTHEAST OHIO

CITY           SKY/WX    TMP DP  RH WIND       PRES   REMARKS
CLE-HOPKINS    FAIR      30  28  92 NE3       30.15R FOG
CLE-LAKEFRONT  FAIR      32  29  88 NE3       30.13R
CUY CO. ARPT   CLEAR     30  28  93 E6        30.13R WCI  24
LORAIN-ELYRIA  HAZE      28  23  81 E3        30.13R VSB 1/4
ASHTABULA      CLOUDY    30  28  92 E3        30.14R
AKRON-CANTON   FAIR      32  24  72 S3        30.10R
WOOSTER        FAIR      20  19  96 CALM      30.11R FOG
MANSFIELD      FAIR      31  25  78 S6        30.10R WCI  25
YOUNGSTOWN     FAIR      28  24  85 NE8       30.11R WCI  20
$$

OHZ042-051>053-060>062-070>072-077>081-170400-
  SOUTHWEST OHIO

CITY           SKY/WX    TMP DP  RH WIND       PRES   REMARKS
CINC-COVINGTON FAIR      43  30  60 SW13      30.13R
CINC-LUNKEN    FAIR      37  28  70 SW3       30.16R
HAMILTON       FAIR      41  28  60 SW5       30.14R
DAYTON         FAIR      37  27  67 S5        30.13R
WRIGHT-PAT AFB FAIR      32  27  81 CALM      30.13R
DAYTON GENERAL FAIR      41  27  57 SW7       30.12R
WILMINGTON     FAIR      36  29  75 SW10      30.13R
$$

OHZ036-037-039>041-045>050-054>059-063>069-073>076-082>088-170400-
  CENTRAL AND SOUTHEAST OHIO

CITY           SKY/WX    TMP DP  RH WIND       PRES   REMARKS
COLUMBUS       FAIR      34  27  75 S3        30.13R
OSU AIRPORT    FAIR      37  28  70 S5        30.12R
BOLTON FIELD   FAIR      31  26  84 SW3       30.14R
RICKENBACK AFB FAIR      30  26  84 CALM      30.14R
NEWARK         FAIR      27  23  85 CALM      30.13R
MARION         FAIR      30  24  78 S6        30.11  WCI  24
LANCASTER      FAIR      28  24  85 CALM      30.14R
ZANESVILLE     FAIR      30  23  75 CALM      30.14R
NEW PHILLY     FAIR      27  24  89 SE3       30.14R
$$




USA.gov is the U.S. government's official web portal to all federal, state and local government web resources and services.